Regional Weather Roundup
Issued by NWS

Home | Current Version | Previous Version | Text Only | Print | Product List | Glossary Off
Versions: 1 2 3 4 5 6 7 8 9 10 11 12 13 14 15 16 17 18 19 20 21 22 23 24 25 26 27 28 29 30 31 32 33 34 35 36 37 38 39 40 41 42 43 44 45 46 47 48 49 50

000
ASUS43 KMKX 130200
RWRWI

WISCONSIN REGIONAL WEATHER ROUNDUP
NATIONAL WEATHER SERVICE MILWAUKEE/SULLIVAN WI
900 PM CDT SAT JUL 12 2014

NOTE: "FAIR" INDICATES FEW OR NO CLOUDS BELOW 12,000 FEET WITH NO
SIGNIFICANT WEATHER AND/OR OBSTRUCTIONS TO VISIBILITY.

WIZ001-002-006>008-014>016-023>028-130300-
NORTHWEST WISCONSIN

CITY           SKY/WX    TMP DP  RH WIND       PRES   REMARKS
SUPERIOR ARPT  MOCLDY    70  61  74 SW7       29.86F
ASHLAND        PTCLDY    66  61  84 W5        29.87S
HAYWARD        CLEAR     68  61  78 CALM      29.90S
SIREN          PTCLDY    68  61  77 W6        29.91S
RICE LAKE      PTCLDY    67  65  93 CALM      29.92S
LADYSMITH      CLOUDY    66  64  95 S8        29.92F
EAU CLAIRE     NOT AVBL
MENOMONIE      PTCLDY    68  66  94 S5        29.92F
NEW RICHMOND   MOCLDY    69  68  96 SW3       29.93S
OSCEOLA        CLOUDY    71  65  82 W3        29.94S
$$

WIZ003>005-009-010-017-018-130300-
NORTH CENTRAL WISCONSIN

CITY           SKY/WX    TMP DP  RH WIND       PRES   REMARKS
WOODRUFF       CLOUDY    64  62  91 SW7       29.90F
RHINELANDER    CLOUDY    63  62  97 SW7       29.90F
EAGLE RIVER    CLOUDY    63  63  99 SW8       29.89F
LAND O LAKES   CLOUDY    65  62  88 SW7       29.90F
PHILLIPS       CLOUDY    64  63  97 SW7       29.89F
TOMAHAWK       CLOUDY    63  61  94 CALM      29.91F
MEDFORD        CLOUDY    63  62  97 CALM      29.93F
MERRILL        DRIZZLE   64  64 100 CALM      29.92R
$$

WIZ029-030-035-036-043>047-130300-
CENTRAL WISCONSIN

CITY           SKY/WX    TMP DP  RH WIND       PRES   REMARKS
WAUSAU         LGT RAIN  65  64  97 W3        29.88F
MOSINEE        DRIZZLE   64  64 100 CALM      29.90F
MARSHFIELD     CLOUDY    65  64  97 NW7       29.90F
STEVENS POINT  DRIZZLE   64  63  96 N3        29.91F
WAUPACA        CLOUDY    69  65  88 CALM      29.88F
WAUTOMA        NOT AVBL
WISC RAPIDS    LGT RAIN  66  64  93 CALM      29.89F
CAMP DOUGLAS   NOT AVBL
$$

WIZ011>013-019>022-031-037>040-048>050-130300-
NORTHEAST WISCONSIN

CITY           SKY/WX    TMP DP  RH WIND       PRES   REMARKS
ANTIGO         LGT RAIN  62  62  99 CALM      29.90F
STURGEON BAY   CLOUDY    66  61  82 NW12      29.86F
GREEN BAY      LGT RAIN  68  61  78 N10       29.86F
MANITOWOC      NOT AVBL
APPLETON       CLOUDY    70  59  68 N14       29.88F
CLINTONVILLE   CLOUDY    66  61  82 CALM      29.87F
OSHKOSH        CLOUDY    68  65  90 N10       29.87S
$$

WIZ032>034-041-042-053>061-130300-
SOUTHWEST WISCONSIN

CITY           SKY/WX    TMP DP  RH WIND       PRES   REMARKS
LA CROSSE      PTCLDY    67  65  93 CALM      29.90F
SPARTA         MOCLDY    66  64  95 CALM      29.89F
VIROQUA        MOCLDY    65  65 100 N5        29.92F
BOSCOBEL       CLOUDY    69  65  86 CALM      29.90F
PRAIRIE DU CHI CLOUDY    67  64  88 CALM      29.90F
PLATTEVILLE    CLOUDY    70  67  92 N15G23    29.89F
$$

WIZ056-057-062-063-064-067-068-130300-
SOUTH CENTRAL WISCONSIN

CITY           SKY/WX    TMP DP  RH WIND       PRES   REMARKS
BARABOO/DELLS  RAIN      66  63  92 N7G17     29.89S
LONE ROCK      NOT AVBL
WATERTOWN      CLOUDY    72  71  96 S3        29.84F
MADISON        LGT RAIN  74  71  91 CALM      29.85F FOG
MIDDLETON      CLOUDY    74  74  98 W3        29.86F
MONROE         RAIN      73  72  94 S12G20    29.84F
JANESVILLE     LGT RAIN  75  72  88 SW7       29.81F
$$

WIZ051-052-058>065-066-070>072-130300-
SOUTHEAST WISCONSIN

CITY           SKY/WX    TMP DP  RH WIND       PRES   REMARKS
MILWAUKEE      LGT RAIN  70  68  93 E5        29.85F FOG
WAUKESHA       RAIN      72  70  94 S5        29.86F FOG
MILWAUKEE/TIMM PTCLDY    73  70  88 SW6       29.88
RACINE         CLOUDY    70  67  90 E3        29.85F
BURLINGTON     CLOUDY    72  71  97 S3        29.84F
KENOSHA        CLOUDY    76  72  87 S9        29.83F
FOND DU LAC    RAIN      71  67  87 NW13      29.87R FOG
SHEBOYGAN      LGT RAIN  72  70  93 VRB5      29.85F FOG
WEST BEND      CLOUDY    72  68  88 CALM      29.85F FOG
JUNEAU         CLOUDY    73  57  57 S5        29.86F HAZE
$$

LSZ147-162-130300-
LAKE SUPERIOR

STATION/POSITION TIME  TEMP    WIND        PRES    WAVE
                       AIR SEA DIR/SP/G            HT/PER
                 (UTC) (F)     (DEG/KT/KT) (MB)    (FT/S)
W MID LAKE BUOY  0050   42 39  110/  4/  6 1010.9F   0
PORT WING        0100   72     230/  4/  8 1011.2F
SAXON HARBOR     0100             CALM     1011.2F
$$

LMZ867-665-643>646-130300-
LAKE MICHIGAN

STATION/POSITION TIME  TEMP    WIND        PRES    WAVE
                       AIR SEA DIR/SP/G            HT/PER
                 (UTC) (F)     (DEG/KT/KT) (MB)    (FT/S)
N MID LAKE BUOY  0050   57 57  210/ 10/ 14 1010.7F   2/ 3
NORTHPORT PIER   0100   66     250/  3/ 23 1011.5S
SISTER BAY       0125   67     360/ 16/ 19   N/A
ALGOMA LAKESHORE 0150          340/ 15/ 20   N/A
KEWAUNEE LAKESHO 0100   54     160/  3/  4 1012.1F
SHEBOYGAN LAKESH 0100   70     180/  6/  7 1011.5F
PORT WASHINGTON  0100   65     210/  3/  6 1012.2F
MILWAUKEE LAKESH 0100          150/ 12/ 13   N/A
S MID LAKE BUOY  0050   64 61  160/ 12/ 12 1012.8F   1/ 4
KENOSHA   LAKESH 0100   68     130/  7/  8   N/A
$$

TC  - TEMPERATURE IN CELSIUS
VSB - VISIBILITY IN STATUTE MILES
WCI - WIND CHILL INDEX
HX  - HEAT INDEX



USA.gov is the U.S. government's official web portal to all federal, state and local government web resources and services.